Change the Weather History Date:

Wednesday, September 18, 2013

  Actual Average (KLOZ) Record (KLOZ)
Temperature  
Mean Temperature 64 °F 68 °F  
Max Temperature 69 °F 79 °F 91 °F (1998)
Min Temperature 59 °F 56 °F 41 °F (1961)
Degree Days  
Heating Degree Days 1 2  
Month to date heating degree days 9  
Since 1 July heating degree days 10  
Cooling Degree Days 0 4  
Month to date cooling degree days 109  
Year to date cooling degree days 1133  
Growing Degree Days 14 (Base 50)    
Moisture  
Dew Point 61 °F    
Average Humidity 84    
Maximum Humidity 94    
Minimum Humidity 78    
Precipitation  
Precipitation 0.00 in 0.11 in 2.44 in (1992)
Month to date precipitation 2.02  
Year to date precipitation 34.70  
Sea Level Pressure  
Sea Level Pressure 30.16 in    
Wind  
Wind Speed 3 mph (South)    
Max Wind Speed 8 mph    
Max Gust Speed -    
Visibility 9 miles    
Events      
T = Trace of Precipitation, MM = Missing Value Source: NWS Daily Summary

Daily Weather History Graph

Daily Weather History Graph

Search for Another Location

Airport or City:

Trip Planner

Search our weather history database for the weather conditions in past years. The results will help you decide how hot, cold, wet, or windy it might be!

Date:

Astronomy

Sep. 18, 2013 Rise Set
Actual Time 7:21 AM EDT 7:40 PM EDT
Civil Twilight 6:55 AM EDT 8:06 PM EDT
Nautical Twilight 6:25 AM EDT 8:36 PM EDT
Astronomical Twilight 5:53 AM EDT 9:08 PM EDT
Moon 7:03 PM EDT (9/18) 6:23 AM EDT (9/18)
Length of Visible Light 13h 10m
Length of Day
12h 18m
Waxing Gibbous, 99% of the Moon is Illuminated
Sep 18
Waxing Gibbous
Sep 19
Full
Sep 26
Last Quarter
Oct 4
New
Oct 11
First Quarter

Hourly Weather History & Observations

Time (EDT) Temp. Dew Point Humidity Pressure Visibility Wind Dir Wind Speed Gust Speed Precip Events Conditions
12:15 AM 62.6 °F 57.2 °F 82% 30.16 in 10.0 mi East 3.5 mph - N/A   Mostly Cloudy
12:35 AM 62.6 °F 57.2 °F 82% 30.16 in 10.0 mi Calm Calm - N/A   Mostly Cloudy
12:55 AM 60.8 °F 57.2 °F 88% 30.16 in 10.0 mi Calm Calm - N/A   Mostly Cloudy
1:15 AM 60.8 °F 57.2 °F 88% 30.15 in 10.0 mi Calm Calm - N/A   Scattered Clouds
1:35 AM 60.8 °F 57.2 °F 88% 30.15 in 10.0 mi Calm Calm - N/A   Clear
1:55 AM 60.8 °F 57.2 °F 88% 30.15 in 10.0 mi Calm Calm - N/A   Scattered Clouds
2:15 AM 59.0 °F 57.2 °F 94% 30.15 in 10.0 mi SE 3.5 mph - N/A   Mostly Cloudy
2:35 AM 60.8 °F 57.2 °F 88% 30.15 in 10.0 mi Calm Calm - N/A   Mostly Cloudy
2:55 AM 60.8 °F 57.2 °F 88% 30.15 in 10.0 mi Calm Calm - N/A   Mostly Cloudy
3:15 AM 62.6 °F 59.0 °F 88% 30.15 in 10.0 mi SSE 3.5 mph - N/A   Scattered Clouds
3:35 AM 64.4 °F 59.0 °F 83% 30.15 in 10.0 mi SSE 3.5 mph - N/A   Scattered Clouds
3:55 AM 64.4 °F 59.0 °F 83% 30.14 in 10.0 mi South 5.8 mph - N/A   Overcast
4:15 AM 64.4 °F 59.0 °F 83% 30.14 in 10.0 mi South 5.8 mph - N/A   Overcast
4:35 AM 64.4 °F 59.0 °F 83% 30.14 in 10.0 mi South 5.8 mph - N/A   Overcast
4:55 AM 66.2 °F 59.0 °F 78% 30.14 in 10.0 mi South 6.9 mph - N/A   Overcast
5:15 AM 66.2 °F 59.0 °F 78% 30.14 in 10.0 mi South 5.8 mph - N/A   Overcast
5:35 AM 66.2 °F 59.0 °F 78% 30.15 in 10.0 mi South 6.9 mph - N/A   Overcast
5:55 AM 66.2 °F 59.0 °F 78% 30.15 in 10.0 mi South 8.1 mph - N/A   Overcast
6:15 AM 66.2 °F 59.0 °F 78% 30.15 in 10.0 mi South 6.9 mph - N/A   Overcast
6:35 AM 66.2 °F 59.0 °F 78% 30.15 in 10.0 mi South 4.6 mph - N/A   Overcast
6:55 AM 66.2 °F 59.0 °F 78% 30.15 in 10.0 mi South 5.8 mph - N/A   Overcast
7:15 AM 66.2 °F 59.0 °F 78% 30.16 in 10.0 mi South 8.1 mph - N/A   Overcast
7:35 AM 66.2 °F 59.0 °F 78% 30.17 in 10.0 mi South 5.8 mph - N/A   Overcast
7:55 AM 66.2 °F 59.0 °F 78% 30.17 in 10.0 mi South 5.8 mph - N/A   Overcast
8:15 AM 64.4 °F 59.0 °F 83% 30.18 in 7.0 mi South 3.5 mph - N/A   Overcast
8:35 AM 64.4 °F 60.8 °F 88% 30.18 in 10.0 mi South 3.5 mph - N/A   Overcast
8:55 AM 64.4 °F 60.8 °F 88% 30.19 in 10.0 mi South 5.8 mph - N/A   Overcast
9:15 AM 64.4 °F 60.8 °F 88% 30.19 in 10.0 mi South 4.6 mph - N/A   Overcast
9:35 AM 64.4 °F 60.8 °F 88% 30.20 in 10.0 mi South 3.5 mph - N/A   Overcast
9:55 AM 64.4 °F 60.8 °F 88% 30.20 in 10.0 mi South 3.5 mph - N/A   Overcast
10:15 AM 64.4 °F 60.8 °F 88% 30.20 in 10.0 mi Calm Calm - N/A   Overcast
10:35 AM 64.4 °F 60.8 °F 88% 30.21 in 7.0 mi South 3.5 mph - N/A   Overcast
10:55 AM 64.4 °F 60.8 °F 88% 30.21 in 7.0 mi Calm Calm - N/A   Overcast
11:15 AM 64.4 °F 60.8 °F 88% 30.21 in 7.0 mi Calm Calm - N/A   Overcast
11:35 AM 64.4 °F 60.8 °F 88% 30.21 in 4.0 mi SSE 3.5 mph - N/A   Overcast
11:55 AM 64.4 °F 60.8 °F 88% 30.20 in 7.0 mi Calm Calm - N/A   Overcast
12:15 PM 64.4 °F 60.8 °F 88% 30.20 in 7.0 mi Calm Calm - N/A   Overcast
12:35 PM 64.4 °F 60.8 °F 88% 30.20 in 7.0 mi Calm Calm - N/A   Overcast
12:55 PM 64.4 °F 62.6 °F 94% 30.20 in 4.0 mi SSE 3.5 mph - N/A   Overcast
1:15 PM 64.4 °F 62.6 °F 94% 30.19 in 5.0 mi South 3.5 mph - N/A   Overcast
1:35 PM 64.4 °F 62.6 °F 94% 30.19 in 10.0 mi South 4.6 mph - N/A   Overcast
1:55 PM 66.2 °F 62.6 °F 88% 30.18 in 10.0 mi South 4.6 mph - N/A   Overcast
2:15 PM 66.2 °F 62.6 °F 88% 30.17 in 10.0 mi South 4.6 mph - N/A   Overcast
2:35 PM 66.2 °F 62.6 °F 88% 30.17 in 10.0 mi South 4.6 mph - N/A   Overcast
2:55 PM 68.0 °F 62.6 °F 83% 30.16 in 10.0 mi SSW 6.9 mph - N/A   Overcast
3:15 PM 69.8 °F 62.6 °F 78% 30.15 in 10.0 mi SSW 6.9 mph - N/A   Overcast
3:35 PM 69.8 °F 62.6 °F 78% 30.15 in 10.0 mi SSW 6.9 mph - N/A   Overcast
3:55 PM 69.8 °F 62.6 °F 78% 30.14 in 10.0 mi SSW 8.1 mph - N/A   Overcast
4:15 PM 69.8 °F 62.6 °F 78% 30.14 in 10.0 mi SW 5.8 mph - N/A   Overcast
4:35 PM 69.8 °F 62.6 °F 78% 30.14 in 10.0 mi SW 5.8 mph - N/A   Overcast
4:55 PM 69.8 °F 62.6 °F 78% 30.13 in 7.0 mi South 6.9 mph - N/A   Overcast
5:15 PM 69.8 °F 62.6 °F 78% 30.13 in 10.0 mi South 5.8 mph - N/A   Overcast
5:35 PM 69.8 °F 62.6 °F 78% 30.13 in 7.0 mi SSW 5.8 mph - N/A   Overcast
5:55 PM 69.8 °F 62.6 °F 78% 30.13 in 7.0 mi South 4.6 mph - N/A   Overcast
6:15 PM 69.8 °F 62.6 °F 78% 30.13 in 7.0 mi South 6.9 mph - N/A   Overcast
6:35 PM 69.8 °F 62.6 °F 78% 30.13 in 10.0 mi South 4.6 mph - N/A   Overcast
6:55 PM 69.8 °F 62.6 °F 78% 30.13 in 10.0 mi South 4.6 mph - N/A   Overcast
7:15 PM 68.0 °F 62.6 °F 83% 30.13 in 10.0 mi South 4.6 mph - N/A   Overcast
7:35 PM 68.0 °F 62.6 °F 83% 30.13 in 10.0 mi South 3.5 mph - N/A   Overcast
7:55 PM 68.0 °F 62.6 °F 83% 30.13 in 10.0 mi South 3.5 mph - N/A   Overcast
8:15 PM 68.0 °F 62.6 °F 83% 30.13 in 10.0 mi South 4.6 mph - N/A   Overcast
8:35 PM 68.0 °F 62.6 °F 83% 30.13 in 10.0 mi South 5.8 mph - N/A   Overcast
8:55 PM 68.0 °F 62.6 °F 83% 30.13 in 10.0 mi South 3.5 mph - N/A   Overcast
9:15 PM 68.0 °F 62.6 °F 83% 30.14 in 10.0 mi Calm Calm - N/A   Overcast
9:35 PM 68.0 °F 62.6 °F 83% 30.14 in 10.0 mi SSE 4.6 mph - N/A   Overcast
9:55 PM 68.0 °F 62.6 °F 83% 30.15 in 10.0 mi SE 3.5 mph - N/A   Overcast
10:15 PM 68.0 °F 62.6 °F 83% 30.14 in 10.0 mi SSE 3.5 mph - N/A   Overcast
10:35 PM 68.0 °F 62.6 °F 83% 30.14 in 10.0 mi SSE 4.6 mph - N/A   Mostly Cloudy
10:55 PM 66.2 °F 62.6 °F 88% 30.14 in 10.0 mi SSE 4.6 mph - N/A   Overcast
11:15 PM 66.2 °F 62.6 °F 88% 30.13 in 10.0 mi SSE 4.6 mph - N/A   Overcast
11:35 PM 66.2 °F 62.6 °F 88% 30.13 in 10.0 mi SSE 3.5 mph - N/A   Overcast
11:55 PM 66.2 °F 62.6 °F 88% 30.13 in 10.0 mi Calm Calm - N/A   Overcast